Dallas, TX

5:22 AM CST on January 23, 2017 (GMT -0600)
Dallas Love

Weather History for KDAL - August, 2013

Change the Weather History Date:

Saturday, August 3, 2013

  Actual Average Record
Temperature  
Mean Temperature 91 °F -  
Max Temperature 102 °F 95 °F 111 °F (2011)
Min Temperature 82 °F 76 °F 72 °F (2014)
Cooling Degree Days 26    
Growing Degree Days 41 (Base 50)    
Moisture  
Dew Point 65 °F    
Average Humidity 42    
Maximum Humidity 58    
Minimum Humidity 28    
Precipitation  
Precipitation 0.00 in - - ()
Sea Level Pressure  
Sea Level Pressure 29.94 in    
Wind  
Wind Speed 10 mph (South)    
Max Wind Speed 14 mph    
Max Gust Speed 23 mph    
Visibility 10 miles    
Events      
Averages and records for this station are not official NWS values.
T = Trace of Precipitation, MM = Missing Value Source: NWS Daily Summary

Daily Weather History Graph

Daily Weather History Graph

Search for Another Location

Airport or City:

Trip Planner

Search our weather history database for the weather conditions in past years. The results will help you decide how hot, cold, wet, or windy it might be!

Date:

Astronomy

Aug. 03, 2013 Rise Set
Actual Time 6:42 AM CDT 8:23 PM CDT
Civil Twilight 6:15 AM CDT 8:50 PM CDT
Nautical Twilight 5:43 AM CDT 9:22 PM CDT
Astronomical Twilight 5:09 AM CDT 9:56 PM CDT
Moon 3:55 AM CDT (8/3) 6:05 PM CDT (8/3)
Length of Visible Light 14h 34m
Length of Day
13h 41m
Waning Crescent, 9% of the Moon is Illuminated
Aug 3
Waning Crescent
Aug 6
New
Aug 14
First Quarter
Aug 20
Full
Aug 28
Last Quarter

Hourly Weather History & Observations

Time (CDT) Temp. Heat Index Dew Point Humidity Pressure Visibility Wind Dir Wind Speed Gust Speed Precip Events Conditions
12:53 AM 90.0 °F 91.7 °F 64.9 °F 43% 29.90 in 10.0 mi SSE 12.7 mph - N/A   Clear
1:53 AM 88.0 °F 89.6 °F 64.9 °F 46% 29.91 in 10.0 mi South 9.2 mph - N/A   Clear
2:53 AM 87.1 °F 89.2 °F 66.0 °F 49% 29.91 in 10.0 mi South 9.2 mph - N/A   Clear
3:53 AM 86.0 °F 88.8 °F 66.9 °F 53% 29.91 in 10.0 mi South 10.4 mph 18.4 mph N/A   Clear
4:53 AM 84.9 °F 87.6 °F 66.9 °F 55% 29.91 in 10.0 mi South 9.2 mph - N/A   Clear
5:53 AM 84.0 °F 86.5 °F 66.9 °F 56% 29.92 in 10.0 mi South 8.1 mph - N/A   Clear
6:53 AM 82.9 °F 85.4 °F 66.9 °F 58% 29.94 in 10.0 mi South 5.8 mph - N/A   Partly Cloudy
7:53 AM 84.0 °F 87.0 °F 68.0 °F 58% 29.95 in 10.0 mi SSW 5.8 mph - N/A   Mostly Cloudy
8:53 AM 86.0 °F 90.1 °F 69.1 °F 57% 29.97 in 10.0 mi SSW 9.2 mph - N/A   Mostly Cloudy
9:53 AM 88.0 °F 92.1 °F 69.1 °F 53% 29.98 in 10.0 mi SW 6.9 mph - N/A   Mostly Cloudy
10:53 AM 91.9 °F 95.9 °F 68.0 °F 45% 29.98 in 10.0 mi SW 8.1 mph - N/A   Mostly Cloudy
11:53 AM 95.0 °F 99.0 °F 66.9 °F 40% 29.98 in 10.0 mi South 8.1 mph 16.1 mph N/A   Mostly Cloudy
12:53 PM 96.1 °F 99.3 °F 66.0 °F 37% 29.97 in 10.0 mi SE 9.2 mph - N/A   Mostly Cloudy
1:53 PM 99.0 °F 102.3 °F 64.9 °F 33% 29.95 in 10.0 mi South 9.2 mph - N/A   Scattered Clouds
2:53 PM 100.0 °F 101.8 °F 63.0 °F 29% 29.94 in 10.0 mi SSE 13.8 mph - N/A   Scattered Clouds
3:53 PM 100.9 °F 103.3 °F 63.0 °F 29% 29.92 in 10.0 mi Variable 5.8 mph - N/A   Scattered Clouds
4:53 PM 100.9 °F 102.7 °F 62.1 °F 28% 29.92 in 10.0 mi Calm Calm - N/A   Scattered Clouds
5:53 PM 100.0 °F 101.8 °F 63.0 °F 29% 29.91 in 10.0 mi SSE 13.8 mph 23.0 mph N/A   Scattered Clouds
6:53 PM 99.0 °F 99.5 °F 60.1 °F 28% 29.91 in 10.0 mi SSE 13.8 mph - N/A   Mostly Cloudy
7:53 PM 98.1 °F 98.6 °F 61.0 °F 29% 29.91 in 10.0 mi South 10.4 mph - N/A   Overcast
8:53 PM 95.0 °F 95.2 °F 61.0 °F 32% 29.92 in 10.0 mi South 8.1 mph - N/A   Overcast
9:53 PM 93.9 °F 94.8 °F 62.1 °F 35% 29.96 in 10.0 mi SSE 9.2 mph - N/A   Mostly Cloudy
10:53 PM 91.9 °F 93.3 °F 64.0 °F 39% 29.99 in 10.0 mi ESE 11.5 mph - N/A   Mostly Cloudy
11:53 PM 89.1 °F 92.9 °F 68.0 °F 50% 29.99 in 10.0 mi SE 11.5 mph - N/A   Partly Cloudy